Year,Month,Day,Hour,Minute,Value (Times are PST for insolation in W/m^2)
2019,09,07,00,00,0.00
2019,09,07,00,01,0.00
2019,09,07,00,02,0.00
2019,09,07,00,03,0.00
2019,09,07,00,04,0.00
2019,09,07,00,05,0.00
2019,09,07,00,06,0.00
2019,09,07,00,07,0.00
2019,09,07,00,08,0.00
2019,09,07,00,09,0.00
2019,09,07,00,10,0.00
2019,09,07,00,11,0.00
2019,09,07,00,12,0.00
2019,09,07,00,13,0.00
2019,09,07,00,14,0.00
2019,09,07,00,15,0.00
2019,09,07,00,16,0.00
2019,09,07,00,17,0.00
2019,09,07,00,18,0.00
2019,09,07,00,19,0.00
2019,09,07,00,20,0.00
2019,09,07,00,21,0.00
2019,09,07,00,22,0.00
2019,09,07,00,23,0.00
2019,09,07,00,24,0.00
2019,09,07,00,25,0.00
2019,09,07,00,26,0.00
2019,09,07,00,27,0.00
2019,09,07,00,28,0.00
2019,09,07,00,29,0.00
2019,09,07,00,30,0.00
2019,09,07,00,31,0.00
2019,09,07,00,32,0.00
2019,09,07,00,33,0.00
2019,09,07,00,34,0.00
2019,09,07,00,35,0.00
2019,09,07,00,36,0.00
2019,09,07,00,37,0.00
2019,09,07,00,38,0.00
2019,09,07,00,39,0.00
2019,09,07,00,40,0.00
2019,09,07,00,41,0.00
2019,09,07,00,42,0.00
2019,09,07,00,43,0.00
2019,09,07,00,44,0.00
2019,09,07,00,45,0.00
2019,09,07,00,46,0.00
2019,09,07,00,47,0.00
2019,09,07,00,48,0.00
2019,09,07,00,49,0.00
2019,09,07,00,50,0.00
2019,09,07,00,51,0.00
2019,09,07,00,52,0.00
2019,09,07,00,53,0.00
2019,09,07,00,54,0.00
2019,09,07,00,55,0.00
2019,09,07,00,56,0.00
2019,09,07,00,57,0.00
2019,09,07,00,58,0.00
2019,09,07,00,59,0.00
2019,09,07,01,00,0.00
2019,09,07,01,01,0.00
2019,09,07,01,02,0.00
2019,09,07,01,03,0.00
2019,09,07,01,04,0.00
2019,09,07,01,05,0.00
2019,09,07,01,06,0.00
2019,09,07,01,07,0.00
2019,09,07,01,08,0.00
2019,09,07,01,09,0.00
2019,09,07,01,10,0.00
2019,09,07,01,11,0.00
2019,09,07,01,12,0.00
2019,09,07,01,13,0.00
2019,09,07,01,14,0.00
2019,09,07,01,15,0.00
2019,09,07,01,16,0.00
2019,09,07,01,17,0.00
2019,09,07,01,18,0.00
2019,09,07,01,19,0.00
2019,09,07,01,20,0.00
2019,09,07,01,21,0.00
2019,09,07,01,22,0.00
2019,09,07,01,23,0.00
2019,09,07,01,24,0.00
2019,09,07,01,25,0.00
2019,09,07,01,26,0.00
2019,09,07,01,27,0.00
2019,09,07,01,28,0.00
2019,09,07,01,29,0.00
2019,09,07,01,30,0.00
2019,09,07,01,31,0.00
2019,09,07,01,32,0.00
2019,09,07,01,33,0.00
2019,09,07,01,34,0.00
2019,09,07,01,35,0.00
2019,09,07,01,36,0.00
2019,09,07,01,37,0.00
2019,09,07,01,38,0.00
2019,09,07,01,39,0.00
2019,09,07,01,40,0.00
2019,09,07,01,41,0.00
2019,09,07,01,42,0.00
2019,09,07,01,43,0.00
2019,09,07,01,44,0.00
2019,09,07,01,45,0.00
2019,09,07,01,46,0.00
2019,09,07,01,47,0.00
2019,09,07,01,48,0.00
2019,09,07,01,49,0.00
2019,09,07,01,50,0.00
2019,09,07,01,51,0.00
2019,09,07,01,52,0.00
2019,09,07,01,53,0.00
2019,09,07,01,54,0.00
2019,09,07,01,55,0.00
2019,09,07,01,56,0.00
2019,09,07,01,57,0.00
2019,09,07,01,58,0.00
2019,09,07,01,59,0.00
2019,09,07,02,00,0.00
2019,09,07,02,01,0.00
2019,09,07,02,02,0.00
2019,09,07,02,03,0.00
2019,09,07,02,04,0.00
2019,09,07,02,05,0.00
2019,09,07,02,06,0.00
2019,09,07,02,07,0.00
2019,09,07,02,08,0.00
2019,09,07,02,09,0.00
2019,09,07,02,10,0.00
2019,09,07,02,11,0.00
2019,09,07,02,12,0.00
2019,09,07,02,13,0.00
2019,09,07,02,14,0.00
2019,09,07,02,15,0.00
2019,09,07,02,16,0.00
2019,09,07,02,17,0.00
2019,09,07,02,18,0.00
2019,09,07,02,19,0.00
2019,09,07,02,20,0.00
2019,09,07,02,21,0.00
2019,09,07,02,22,0.00
2019,09,07,02,23,0.00
2019,09,07,02,24,0.00
2019,09,07,02,25,0.00
2019,09,07,02,26,0.00
2019,09,07,02,27,0.00
2019,09,07,02,28,0.00
2019,09,07,02,29,0.00
2019,09,07,02,30,0.00
2019,09,07,02,31,0.00
2019,09,07,02,32,0.00
2019,09,07,02,33,0.00
2019,09,07,02,34,0.00
2019,09,07,02,35,0.00
2019,09,07,02,36,0.00
2019,09,07,02,37,0.00
2019,09,07,02,38,0.00
2019,09,07,02,39,0.00
2019,09,07,02,40,0.00
2019,09,07,02,41,0.00
2019,09,07,02,42,0.00
2019,09,07,02,43,0.00
2019,09,07,02,44,0.00
2019,09,07,02,45,0.00
2019,09,07,02,46,0.00
2019,09,07,02,47,0.00
2019,09,07,02,48,0.00
2019,09,07,02,49,0.00
2019,09,07,02,50,0.00
2019,09,07,02,51,0.00
2019,09,07,02,52,0.00
2019,09,07,02,53,0.00
2019,09,07,02,54,0.00
2019,09,07,02,55,0.00
2019,09,07,02,56,0.00
2019,09,07,02,57,0.00
2019,09,07,02,58,0.00
2019,09,07,02,59,0.00
2019,09,07,03,00,0.00
2019,09,07,03,01,0.00
2019,09,07,03,02,0.00
2019,09,07,03,03,0.00
2019,09,07,03,04,0.00
2019,09,07,03,05,0.00
2019,09,07,03,06,0.00
2019,09,07,03,07,0.00
2019,09,07,03,08,0.00
2019,09,07,03,09,0.00
2019,09,07,03,10,0.00
2019,09,07,03,11,0.00
2019,09,07,03,12,0.00
2019,09,07,03,13,0.00
2019,09,07,03,14,0.00
2019,09,07,03,15,0.00
2019,09,07,03,16,0.00
2019,09,07,03,17,0.00
2019,09,07,03,18,0.00
2019,09,07,03,19,0.00
2019,09,07,03,20,0.00
2019,09,07,03,21,0.00
2019,09,07,03,22,0.00
2019,09,07,03,23,0.00
2019,09,07,03,24,0.00
2019,09,07,03,25,0.00
2019,09,07,03,26,0.00
2019,09,07,03,27,0.00
2019,09,07,03,28,0.00
2019,09,07,03,29,0.00
2019,09,07,03,30,0.00
2019,09,07,03,31,0.00
2019,09,07,03,32,0.00
2019,09,07,03,33,0.00
2019,09,07,03,34,0.00
2019,09,07,03,35,0.00
2019,09,07,03,36,0.00
2019,09,07,03,37,0.00
2019,09,07,03,38,0.00
2019,09,07,03,39,0.00
2019,09,07,03,40,0.00
2019,09,07,03,41,0.00
2019,09,07,03,42,0.00
2019,09,07,03,43,0.00
2019,09,07,03,44,0.00
2019,09,07,03,45,0.00
2019,09,07,03,46,0.00
2019,09,07,03,47,0.00
2019,09,07,03,48,0.00
2019,09,07,03,49,0.00
2019,09,07,03,50,0.00
2019,09,07,03,51,0.00
2019,09,07,03,52,0.00
2019,09,07,03,53,0.00
2019,09,07,03,54,0.00
2019,09,07,03,55,0.00
2019,09,07,03,56,0.00
2019,09,07,03,57,0.00
2019,09,07,03,58,0.00
2019,09,07,03,59,0.00
2019,09,07,04,00,0.00
2019,09,07,04,01,0.00
2019,09,07,04,02,0.00
2019,09,07,04,03,0.00
2019,09,07,04,04,0.00
2019,09,07,04,05,0.00
2019,09,07,04,06,0.00
2019,09,07,04,07,0.00
2019,09,07,04,08,0.00
2019,09,07,04,09,0.00
2019,09,07,04,10,0.00
2019,09,07,04,11,0.00
2019,09,07,04,12,0.00
2019,09,07,04,13,0.00
2019,09,07,04,14,0.00
2019,09,07,04,15,0.00
2019,09,07,04,16,0.00
2019,09,07,04,17,0.00
2019,09,07,04,18,0.00
2019,09,07,04,19,0.00
2019,09,07,04,20,0.00
2019,09,07,04,21,0.00
2019,09,07,04,22,0.00
2019,09,07,04,23,0.00
2019,09,07,04,24,0.00
2019,09,07,04,25,0.00
2019,09,07,04,26,0.00
2019,09,07,04,27,0.00
2019,09,07,04,28,0.00
2019,09,07,04,29,0.00
2019,09,07,04,30,0.00
2019,09,07,04,31,0.00
2019,09,07,04,32,0.00
2019,09,07,04,33,0.00
2019,09,07,04,34,0.00
2019,09,07,04,35,0.00
2019,09,07,04,36,0.00
2019,09,07,04,37,0.00
2019,09,07,04,38,0.00
2019,09,07,04,39,0.00
2019,09,07,04,40,0.00
2019,09,07,04,41,0.00
2019,09,07,04,42,0.00
2019,09,07,04,43,0.00
2019,09,07,04,44,0.00
2019,09,07,04,45,0.00
2019,09,07,04,46,0.00
2019,09,07,04,47,0.00
2019,09,07,04,48,0.00
2019,09,07,04,49,0.00
2019,09,07,04,50,0.00
2019,09,07,04,51,0.00
2019,09,07,04,52,0.00
2019,09,07,04,53,0.00
2019,09,07,04,54,0.00
2019,09,07,04,55,0.00
2019,09,07,04,56,0.00
2019,09,07,04,57,0.00
2019,09,07,04,58,0.00
2019,09,07,04,59,0.00
2019,09,07,05,00,0.00
2019,09,07,05,01,0.00
2019,09,07,05,02,0.00
2019,09,07,05,03,0.00
2019,09,07,05,04,0.00
2019,09,07,05,05,0.00
2019,09,07,05,06,0.00
2019,09,07,05,07,0.00
2019,09,07,05,08,0.00
2019,09,07,05,09,0.00
2019,09,07,05,10,0.00
2019,09,07,05,11,0.00
2019,09,07,05,12,0.00
2019,09,07,05,13,0.00
2019,09,07,05,14,0.00
2019,09,07,05,15,0.00
2019,09,07,05,16,0.00
2019,09,07,05,17,0.00
2019,09,07,05,18,0.00
2019,09,07,05,19,0.00
2019,09,07,05,20,0.00
2019,09,07,05,21,0.00
2019,09,07,05,22,0.00
2019,09,07,05,23,0.00
2019,09,07,05,24,0.00
2019,09,07,05,25,0.00
2019,09,07,05,26,0.00
2019,09,07,05,27,0.00
2019,09,07,05,28,0.00
2019,09,07,05,29,0.00
2019,09,07,05,30,0.00
2019,09,07,05,31,0.00
2019,09,07,05,32,0.00
2019,09,07,05,33,0.00
2019,09,07,05,34,0.00
2019,09,07,05,35,0.00
2019,09,07,05,36,0.00
2019,09,07,05,37,0.00
2019,09,07,05,38,0.00
2019,09,07,05,39,0.00
2019,09,07,05,40,0.00
2019,09,07,05,41,0.00
2019,09,07,05,42,0.00
2019,09,07,05,43,0.00
2019,09,07,05,44,0.00
2019,09,07,05,45,0.00
2019,09,07,05,46,0.00
2019,09,07,05,47,0.00
2019,09,07,05,48,0.00
2019,09,07,05,49,0.00
2019,09,07,05,50,0.00
2019,09,07,05,51,0.00
2019,09,07,05,52,0.00
2019,09,07,05,53,0.00
2019,09,07,05,54,0.00
2019,09,07,05,55,0.00
2019,09,07,05,56,0.00
2019,09,07,05,57,0.00
2019,09,07,05,58,0.00
2019,09,07,05,59,0.00
2019,09,07,06,00,0.00
2019,09,07,06,01,0.00
2019,09,07,06,02,0.00
2019,09,07,06,03,0.00
2019,09,07,06,04,0.00
2019,09,07,06,05,0.00
2019,09,07,06,06,0.00
2019,09,07,06,07,0.00
2019,09,07,06,08,0.00
2019,09,07,06,09,0.00
2019,09,07,06,10,0.00
2019,09,07,06,11,0.00
2019,09,07,06,12,0.00
2019,09,07,06,13,0.00
2019,09,07,06,14,0.00
2019,09,07,06,15,0.00
2019,09,07,06,16,0.00
2019,09,07,06,17,0.00
2019,09,07,06,18,0.00
2019,09,07,06,19,0.00
2019,09,07,06,20,0.00
2019,09,07,06,21,0.00
2019,09,07,06,22,0.00
2019,09,07,06,23,0.00
2019,09,07,06,24,0.00
2019,09,07,06,25,0.00
2019,09,07,06,26,0.00
2019,09,07,06,27,0.00
2019,09,07,06,28,0.00
2019,09,07,06,29,0.00
2019,09,07,06,30,0.00
2019,09,07,06,31,0.00
2019,09,07,06,32,0.00
2019,09,07,06,33,0.00
2019,09,07,06,34,4.20
2019,09,07,06,35,5.00
2019,09,07,06,36,5.00
2019,09,07,06,37,7.00
2019,09,07,06,38,7.00
2019,09,07,06,39,7.40
2019,09,07,06,40,9.00
2019,09,07,06,41,9.00
2019,09,07,06,42,8.20
2019,09,07,06,43,7.00
2019,09,07,06,44,7.00
2019,09,07,06,45,7.00
2019,09,07,06,46,7.00
2019,09,07,06,47,7.00
2019,09,07,06,48,7.00
2019,09,07,06,49,7.00
2019,09,07,06,50,7.00
2019,09,07,06,51,7.00
2019,09,07,06,52,7.00
2019,09,07,06,53,7.00
2019,09,07,06,54,7.00
2019,09,07,06,55,7.00
2019,09,07,06,56,7.00
2019,09,07,06,57,7.00
2019,09,07,06,58,7.00
2019,09,07,06,59,7.00
2019,09,07,07,00,7.00
2019,09,07,07,01,7.00
2019,09,07,07,02,7.00
2019,09,07,07,03,8.60
2019,09,07,07,04,9.00
2019,09,07,07,05,9.00
2019,09,07,07,06,9.00
2019,09,07,07,07,9.20
2019,09,07,07,08,11.00
2019,09,07,07,09,11.00
2019,09,07,07,10,11.00
2019,09,07,07,11,11.00
2019,09,07,07,12,11.00
2019,09,07,07,13,11.40
2019,09,07,07,14,12.00
2019,09,07,07,15,12.00
2019,09,07,07,16,13.30
2019,09,07,07,17,14.00
2019,09,07,07,18,15.50
2019,09,07,07,19,16.00
2019,09,07,07,20,17.80
2019,09,07,07,21,18.90
2019,09,07,07,22,19.20
2019,09,07,07,23,21.30
2019,09,07,07,24,23.40
2019,09,07,07,25,25.30
2019,09,07,07,26,26.70
2019,09,07,07,27,28.00
2019,09,07,07,28,28.90
2019,09,07,07,29,31.10
2019,09,07,07,30,32.60
2019,09,07,07,31,33.00
2019,09,07,07,32,33.00
2019,09,07,07,33,34.60
2019,09,07,07,34,35.00
2019,09,07,07,35,35.00
2019,09,07,07,36,37.00
2019,09,07,07,37,37.00
2019,09,07,07,38,37.40
2019,09,07,07,39,39.00
2019,09,07,07,40,39.00
2019,09,07,07,41,39.40
2019,09,07,07,42,40.00
2019,09,07,07,43,41.00
2019,09,07,07,44,43.10
2019,09,07,07,45,44.00
2019,09,07,07,46,45.30
2019,09,07,07,47,46.70
2019,09,07,07,48,47.00
2019,09,07,07,49,47.00
2019,09,07,07,50,47.00
2019,09,07,07,51,47.00
2019,09,07,07,52,47.00
2019,09,07,07,53,46.80
2019,09,07,07,54,45.60
2019,09,07,07,55,43.40
2019,09,07,07,56,42.00
2019,09,07,07,57,41.30
2019,09,07,07,58,40.00
2019,09,07,07,59,40.00
2019,09,07,08,00,40.00
2019,09,07,08,01,41.30
2019,09,07,08,02,43.50
2019,09,07,08,03,45.60
2019,09,07,08,04,46.80
2019,09,07,08,05,48.80
2019,09,07,08,06,51.10
2019,09,07,08,07,53.30
2019,09,07,08,08,56.30
2019,09,07,08,09,58.40
2019,09,07,08,10,60.60
2019,09,07,08,11,62.40
2019,09,07,08,12,63.80
2019,09,07,08,13,65.00
2019,09,07,08,14,66.10
2019,09,07,08,15,68.80
2019,09,07,08,16,72.70
2019,09,07,08,17,76.20
2019,09,07,08,18,80.20
2019,09,07,08,19,83.50
2019,09,07,08,20,87.60
2019,09,07,08,21,90.20
2019,09,07,08,22,93.50
2019,09,07,08,23,98.90
2019,09,07,08,24,105.80
2019,09,07,08,25,112.80
2019,09,07,08,26,119.80
2019,09,07,08,27,129.70
2019,09,07,08,28,131.40
2019,09,07,08,29,121.90
2019,09,07,08,30,120.40
2019,09,07,08,31,118.60
2019,09,07,08,32,115.20
2019,09,07,08,33,111.60
2019,09,07,08,34,109.30
2019,09,07,08,35,107.20
2019,09,07,08,36,105.00
2019,09,07,08,37,104.90
2019,09,07,08,38,104.00
2019,09,07,08,39,104.00
2019,09,07,08,40,103.50
2019,09,07,08,41,101.30
2019,09,07,08,42,99.20
2019,09,07,08,43,97.50
2019,09,07,08,44,94.90
2019,09,07,08,45,91.80
2019,09,07,08,46,88.90
2019,09,07,08,47,86.50
2019,09,07,08,48,86.00
2019,09,07,08,49,87.70
2019,09,07,08,50,89.80
2019,09,07,08,51,90.00
2019,09,07,08,52,90.00
2019,09,07,08,53,90.00
2019,09,07,08,54,90.20
2019,09,07,08,55,92.00
2019,09,07,08,56,95.00
2019,09,07,08,57,95.80
2019,09,07,08,58,97.40
2019,09,07,08,59,100.20
2019,09,07,09,00,103.80
2019,09,07,09,01,105.00
2019,09,07,09,02,105.00
2019,09,07,09,03,105.00
2019,09,07,09,04,105.00
2019,09,07,09,05,105.00
2019,09,07,09,06,107.00
2019,09,07,09,07,107.20
2019,09,07,09,08,109.00
2019,09,07,09,09,109.50
2019,09,07,09,10,111.90
2019,09,07,09,11,114.70
2019,09,07,09,12,116.90
2019,09,07,09,13,118.90
2019,09,07,09,14,120.50
2019,09,07,09,15,122.20
2019,09,07,09,16,124.30
2019,09,07,09,17,125.00
2019,09,07,09,18,123.40
2019,09,07,09,19,120.60
2019,09,07,09,20,118.10
2019,09,07,09,21,116.10
2019,09,07,09,22,115.80
2019,09,07,09,23,114.00
2019,09,07,09,24,114.00
2019,09,07,09,25,114.00
2019,09,07,09,26,115.50
2019,09,07,09,27,119.30
2019,09,07,09,28,122.80
2019,09,07,09,29,126.70
2019,09,07,09,30,132.40
2019,09,07,09,31,138.90
2019,09,07,09,32,144.70
2019,09,07,09,33,148.40
2019,09,07,09,34,150.60
2019,09,07,09,35,154.60
2019,09,07,09,36,155.90
2019,09,07,09,37,158.20
2019,09,07,09,38,160.00
2019,09,07,09,39,159.20
2019,09,07,09,40,155.10
2019,09,07,09,41,152.40
2019,09,07,09,42,148.90
2019,09,07,09,43,144.20
2019,09,07,09,44,143.10
2019,09,07,09,45,144.00
2019,09,07,09,46,144.00
2019,09,07,09,47,142.60
2019,09,07,09,48,142.00
2019,09,07,09,49,143.70
2019,09,07,09,50,148.50
2019,09,07,09,51,155.40
2019,09,07,09,52,162.70
2019,09,07,09,53,169.50
2019,09,07,09,54,172.00
2019,09,07,09,55,172.60
2019,09,07,09,56,174.00
2019,09,07,09,57,174.80
2019,09,07,09,58,176.90
2019,09,07,09,59,176.90
2019,09,07,10,00,173.60
2019,09,07,10,01,169.90
2019,09,07,10,02,166.10
2019,09,07,10,03,162.60
2019,09,07,10,04,158.60
2019,09,07,10,05,156.20
2019,09,07,10,06,153.10
2019,09,07,10,07,153.00
2019,09,07,10,08,153.00
2019,09,07,10,09,153.80
2019,09,07,10,10,157.30
2019,09,07,10,11,161.10
2019,09,07,10,12,163.80
2019,09,07,10,13,166.80
2019,09,07,10,14,170.60
2019,09,07,10,15,175.80
2019,09,07,10,16,181.40
2019,09,07,10,17,188.20
2019,09,07,10,18,197.20
2019,09,07,10,19,205.70
2019,09,07,10,20,213.30
2019,09,07,10,21,220.20
2019,09,07,10,22,223.40
2019,09,07,10,23,227.50
2019,09,07,10,24,231.40
2019,09,07,10,25,237.60
2019,09,07,10,26,239.70
2019,09,07,10,27,241.80
2019,09,07,10,28,242.10
2019,09,07,10,29,238.90
2019,09,07,10,30,236.40
2019,09,07,10,31,239.40
2019,09,07,10,32,249.20
2019,09,07,10,33,263.50
2019,09,07,10,34,268.70
2019,09,07,10,35,259.20
2019,09,07,10,36,234.60
2019,09,07,10,37,222.70
2019,09,07,10,38,218.90
2019,09,07,10,39,210.70
2019,09,07,10,40,199.40
2019,09,07,10,41,189.60
2019,09,07,10,42,182.10
2019,09,07,10,43,176.20
2019,09,07,10,44,174.00
2019,09,07,10,45,175.20
2019,09,07,10,46,177.90
2019,09,07,10,47,181.90
2019,09,07,10,48,184.60
2019,09,07,10,49,185.00
2019,09,07,10,50,185.90
2019,09,07,10,51,188.00
2019,09,07,10,52,190.20
2019,09,07,10,53,192.50
2019,09,07,10,54,195.50
2019,09,07,10,55,197.80
2019,09,07,10,56,200.60
2019,09,07,10,57,203.60
2019,09,07,10,58,206.50
2019,09,07,10,59,209.10
2019,09,07,11,00,212.20
2019,09,07,11,01,216.40
2019,09,07,11,02,221.70
2019,09,07,11,03,229.80
2019,09,07,11,04,245.50
2019,09,07,11,05,266.00
2019,09,07,11,06,329.80
2019,09,07,11,07,296.20
2019,09,07,11,08,347.30
2019,09,07,11,09,322.00
2019,09,07,11,10,334.60
2019,09,07,11,11,375.80
2019,09,07,11,12,366.90
2019,09,07,11,13,349.00
2019,09,07,11,14,396.30
2019,09,07,11,15,405.20
2019,09,07,11,16,348.40
2019,09,07,11,17,311.90
2019,09,07,11,18,303.50
2019,09,07,11,19,296.00
2019,09,07,11,20,288.70
2019,09,07,11,21,278.10
2019,09,07,11,22,268.10
2019,09,07,11,23,259.50
2019,09,07,11,24,258.10
2019,09,07,11,25,260.70
2019,09,07,11,26,258.00
2019,09,07,11,27,264.60
2019,09,07,11,28,274.80
2019,09,07,11,29,280.10
2019,09,07,11,30,297.80
2019,09,07,11,31,342.10
2019,09,07,11,32,326.80
2019,09,07,11,33,315.00
2019,09,07,11,34,321.70
2019,09,07,11,35,307.70
2019,09,07,11,36,297.00
2019,09,07,11,37,286.80
2019,09,07,11,38,284.10
2019,09,07,11,39,278.80
2019,09,07,11,40,278.80
2019,09,07,11,41,281.60
2019,09,07,11,42,285.00
2019,09,07,11,43,290.80
2019,09,07,11,44,302.90
2019,09,07,11,45,308.00
2019,09,07,11,46,303.30
2019,09,07,11,47,308.60
2019,09,07,11,48,320.60
2019,09,07,11,49,355.20
2019,09,07,11,50,359.00
2019,09,07,11,51,355.20
2019,09,07,11,52,357.50
2019,09,07,11,53,381.10
2019,09,07,11,54,388.40
2019,09,07,11,55,376.00
2019,09,07,11,56,332.50
2019,09,07,11,57,355.60
2019,09,07,11,58,358.90
2019,09,07,11,59,317.80
2019,09,07,12,00,316.00
2019,09,07,12,01,320.10
2019,09,07,12,02,333.80
2019,09,07,12,03,326.00
2019,09,07,12,04,318.40
2019,09,07,12,05,326.50
2019,09,07,12,06,313.60
2019,09,07,12,07,311.00
2019,09,07,12,08,311.00
2019,09,07,12,09,310.60
2019,09,07,12,10,309.60
2019,09,07,12,11,312.50
2019,09,07,12,12,309.50
2019,09,07,12,13,301.50
2019,09,07,12,14,297.30
2019,09,07,12,15,291.60
2019,09,07,12,16,286.50
2019,09,07,12,17,279.80
2019,09,07,12,18,272.80
2019,09,07,12,19,264.70
2019,09,07,12,20,258.60
2019,09,07,12,21,259.90
2019,09,07,12,22,261.30
2019,09,07,12,23,272.90
2019,09,07,12,24,279.50
2019,09,07,12,25,290.70
2019,09,07,12,26,309.90
2019,09,07,12,27,321.20
2019,09,07,12,28,327.30
2019,09,07,12,29,339.00
2019,09,07,12,30,356.80
2019,09,07,12,31,367.40
2019,09,07,12,32,367.50
2019,09,07,12,33,368.60
2019,09,07,12,34,380.90
2019,09,07,12,35,401.90
2019,09,07,12,36,414.60
2019,09,07,12,37,420.40
2019,09,07,12,38,425.10
2019,09,07,12,39,429.80
2019,09,07,12,40,427.20
2019,09,07,12,41,431.60
2019,09,07,12,42,425.80
2019,09,07,12,43,412.00
2019,09,07,12,44,404.90
2019,09,07,12,45,391.40
2019,09,07,12,46,396.70
2019,09,07,12,47,411.80
2019,09,07,12,48,458.50
2019,09,07,12,49,457.80
2019,09,07,12,50,455.00
2019,09,07,12,51,643.00
2019,09,07,12,52,640.00
2019,09,07,12,53,706.60
2019,09,07,12,54,733.80
2019,09,07,12,55,768.50
2019,09,07,12,56,790.70
2019,09,07,12,57,798.80
2019,09,07,12,58,797.00
2019,09,07,12,59,804.50
2019,09,07,13,00,801.60
2019,09,07,13,01,775.40
2019,09,07,13,02,734.80
2019,09,07,13,03,714.50
2019,09,07,13,04,696.70
2019,09,07,13,05,629.60
2019,09,07,13,06,599.20
2019,09,07,13,07,546.80
2019,09,07,13,08,596.00
2019,09,07,13,09,557.00
2019,09,07,13,10,587.20
2019,09,07,13,11,589.70
2019,09,07,13,12,571.20
2019,09,07,13,13,572.00
2019,09,07,13,14,582.00
2019,09,07,13,15,582.00
2019,09,07,13,16,598.40
2019,09,07,13,17,598.60
2019,09,07,13,18,599.90
2019,09,07,13,19,579.10
2019,09,07,13,20,645.70
2019,09,07,13,21,629.30
2019,09,07,13,22,620.20
2019,09,07,13,23,549.20
2019,09,07,13,24,504.00
2019,09,07,13,25,450.00
2019,09,07,13,26,520.00
2019,09,07,13,27,650.90
2019,09,07,13,28,644.00
2019,09,07,13,29,593.90
2019,09,07,13,30,560.00
2019,09,07,13,31,593.10
2019,09,07,13,32,622.10
2019,09,07,13,33,604.70
2019,09,07,13,34,609.40
2019,09,07,13,35,580.50
2019,09,07,13,36,577.00
2019,09,07,13,37,573.10
2019,09,07,13,38,550.30
2019,09,07,13,39,607.10
2019,09,07,13,40,612.60
2019,09,07,13,41,581.70
2019,09,07,13,42,551.20
2019,09,07,13,43,567.10
2019,09,07,13,44,547.60
2019,09,07,13,45,531.00
2019,09,07,13,46,420.20
2019,09,07,13,47,369.00
2019,09,07,13,48,491.40
2019,09,07,13,49,502.80
2019,09,07,13,50,419.40
2019,09,07,13,51,415.00
2019,09,07,13,52,444.30
2019,09,07,13,53,696.50
2019,09,07,13,54,631.00
2019,09,07,13,55,580.00
2019,09,07,13,56,414.00
2019,09,07,13,57,353.60
2019,09,07,13,58,334.10
2019,09,07,13,59,410.50
2019,09,07,14,00,448.00
2019,09,07,14,01,407.00
2019,09,07,14,02,403.40
2019,09,07,14,03,461.00
2019,09,07,14,04,478.00
2019,09,07,14,05,599.30
2019,09,07,14,06,601.90
2019,09,07,14,07,518.70
2019,09,07,14,08,487.00
2019,09,07,14,09,527.40
2019,09,07,14,10,454.30
2019,09,07,14,11,476.00
2019,09,07,14,12,495.60
2019,09,07,14,13,504.70
2019,09,07,14,14,540.00
2019,09,07,14,15,414.40
2019,09,07,14,16,313.20
2019,09,07,14,17,308.00
2019,09,07,14,18,343.50
2019,09,07,14,19,410.00
2019,09,07,14,20,470.20
2019,09,07,14,21,468.00
2019,09,07,14,22,369.10
2019,09,07,14,23,332.90
2019,09,07,14,24,314.20
2019,09,07,14,25,307.40
2019,09,07,14,26,296.50
2019,09,07,14,27,291.20
2019,09,07,14,28,293.30
2019,09,07,14,29,309.50
2019,09,07,14,30,307.00
2019,09,07,14,31,297.00
2019,09,07,14,32,299.80
2019,09,07,14,33,304.90
2019,09,07,14,34,316.20
2019,09,07,14,35,318.00
2019,09,07,14,36,310.90
2019,09,07,14,37,301.70
2019,09,07,14,38,300.00
2019,09,07,14,39,321.10
2019,09,07,14,40,351.90
2019,09,07,14,41,310.10
2019,09,07,14,42,298.50
2019,09,07,14,43,293.50
2019,09,07,14,44,290.90
2019,09,07,14,45,288.20
2019,09,07,14,46,284.30
2019,09,07,14,47,284.40
2019,09,07,14,48,281.80
2019,09,07,14,49,279.30
2019,09,07,14,50,274.50
2019,09,07,14,51,278.00
2019,09,07,14,52,276.80
2019,09,07,14,53,266.70
2019,09,07,14,54,263.80
2019,09,07,14,55,256.80
2019,09,07,14,56,246.10
2019,09,07,14,57,235.00
2019,09,07,14,58,224.90
2019,09,07,14,59,215.30
2019,09,07,15,00,208.00
2019,09,07,15,01,204.60
2019,09,07,15,02,205.50
2019,09,07,15,03,206.80
2019,09,07,15,04,212.40
2019,09,07,15,05,219.30
2019,09,07,15,06,229.90
2019,09,07,15,07,237.60
2019,09,07,15,08,243.80
2019,09,07,15,09,248.80
2019,09,07,15,10,252.30
2019,09,07,15,11,255.00
2019,09,07,15,12,256.20
2019,09,07,15,13,259.90
2019,09,07,15,14,263.60
2019,09,07,15,15,269.20
2019,09,07,15,16,276.10
2019,09,07,15,17,289.80
2019,09,07,15,18,334.30
2019,09,07,15,19,355.20
2019,09,07,15,20,348.50
2019,09,07,15,21,439.60
2019,09,07,15,22,471.50
2019,09,07,15,23,495.80
2019,09,07,15,24,506.40
2019,09,07,15,25,513.70
2019,09,07,15,26,515.60
2019,09,07,15,27,496.00
2019,09,07,15,28,461.50
2019,09,07,15,29,466.90
2019,09,07,15,30,450.50
2019,09,07,15,31,451.30
2019,09,07,15,32,449.10
2019,09,07,15,33,452.00
2019,09,07,15,34,450.80
2019,09,07,15,35,399.80
2019,09,07,15,36,359.40
2019,09,07,15,37,403.00
2019,09,07,15,38,401.80
2019,09,07,15,39,394.50
2019,09,07,15,40,395.50
2019,09,07,15,41,427.70
2019,09,07,15,42,426.20
2019,09,07,15,43,404.90
2019,09,07,15,44,381.30
2019,09,07,15,45,363.40
2019,09,07,15,46,380.00
2019,09,07,15,47,324.00
2019,09,07,15,48,300.40
2019,09,07,15,49,319.50
2019,09,07,15,50,323.00
2019,09,07,15,51,591.70
2019,09,07,15,52,583.80
2019,09,07,15,53,543.40
2019,09,07,15,54,452.80
2019,09,07,15,55,355.10
2019,09,07,15,56,297.00
2019,09,07,15,57,341.60
2019,09,07,15,58,403.00
2019,09,07,15,59,346.20
2019,09,07,16,00,323.80
2019,09,07,16,01,343.00
2019,09,07,16,02,515.40
2019,09,07,16,03,577.00
2019,09,07,16,04,406.10
2019,09,07,16,05,376.00
2019,09,07,16,06,246.60
2019,09,07,16,07,216.10
2019,09,07,16,08,201.40
2019,09,07,16,09,234.00
2019,09,07,16,10,290.40
2019,09,07,16,11,218.80
2019,09,07,16,12,166.90
2019,09,07,16,13,148.20
2019,09,07,16,14,137.10
2019,09,07,16,15,139.00
2019,09,07,16,16,139.00
2019,09,07,16,17,139.00
2019,09,07,16,18,170.60
2019,09,07,16,19,253.10
2019,09,07,16,20,267.00
2019,09,07,16,21,322.60
2019,09,07,16,22,272.20
2019,09,07,16,23,225.40
2019,09,07,16,24,292.20
2019,09,07,16,25,279.00
2019,09,07,16,26,222.30
2019,09,07,16,27,216.80
2019,09,07,16,28,205.80
2019,09,07,16,29,217.90
2019,09,07,16,30,220.20
2019,09,07,16,31,187.10
2019,09,07,16,32,172.50
2019,09,07,16,33,160.70
2019,09,07,16,34,150.40
2019,09,07,16,35,148.10
2019,09,07,16,36,163.00
2019,09,07,16,37,166.60
2019,09,07,16,38,161.00
2019,09,07,16,39,152.20
2019,09,07,16,40,153.70
2019,09,07,16,41,166.30
2019,09,07,16,42,170.20
2019,09,07,16,43,180.40
2019,09,07,16,44,184.10
2019,09,07,16,45,191.00
2019,09,07,16,46,200.90
2019,09,07,16,47,199.10
2019,09,07,16,48,195.40
2019,09,07,16,49,204.30
2019,09,07,16,50,213.20
2019,09,07,16,51,200.00
2019,09,07,16,52,173.90
2019,09,07,16,53,152.60
2019,09,07,16,54,137.10
2019,09,07,16,55,129.40
2019,09,07,16,56,129.30
2019,09,07,16,57,144.00
2019,09,07,16,58,174.30
2019,09,07,16,59,202.00
2019,09,07,17,00,207.60
2019,09,07,17,01,184.20
2019,09,07,17,02,160.50
2019,09,07,17,03,157.20
2019,09,07,17,04,162.20
2019,09,07,17,05,164.80
2019,09,07,17,06,170.30
2019,09,07,17,07,159.40
2019,09,07,17,08,169.00
2019,09,07,17,09,151.50
2019,09,07,17,10,142.70
2019,09,07,17,11,140.90
2019,09,07,17,12,153.00
2019,09,07,17,13,162.20
2019,09,07,17,14,188.20
2019,09,07,17,15,222.50